Other Surface Observations
Issued by NWS Tucson, AZ

Home | Current Version | Previous Version | Text Only | Print | Product List | Glossary On
Versions: 1 2 3 4 5 6 7 8 9 10 11 12 13 14 15 16 17 18 19 20 21 22 23 24 25 26 27 28 29 30 31 32 33 34 35 36 37 38 39 40 41 42 43 44 45 46 47 48 49 50
000
SXUS55 KTWC 011916
OSOTWC

WEATHER ROUNDUP FOR SOUTHEAST ARIZONA
NATIONAL WEATHER SERVICE TUCSON AZ
1215 PM MST MON SEP 01 2014

AZZ504>506-514-012015-
LOCATION       SKY/WX    TMP DP  RH WIND       PRES   REMARKS
TUCSON         SUNNY     96  43  16 MISG      29.96F
DAVIS-MONTHAN  SUNNY     93  45  19 W1        29.95F
CHILDRENS PARK N/A      N/A N/A N/A N/A               PIMA CO DEQ
ALVERNON/22ND  N/A      N/A N/A N/A N/A               PIMA CO DEQ
CHERRY/GLENN   N/A      N/A N/A N/A N/A               PIMA CO DEQ
TANGERINE      N/A       93 N/A N/A S4                PIMA CO DEQ
CONTL RANCH    N/A       95  45  18 SE6               PIMA CO DEQ
GRANT/1ST      N/A       94  43  17 S2                PIMA CO DEQ
CRAYCROFT/22ND N/A      N/A N/A N/A N/A               PIMA CO DEQ
GOLFLINKS/KOLB N/A      N/A N/A N/A N/A               PIMA CO DEQ
AJO/12TH       N/A       94  43  17 SE3               PIMA CO DEQ
SAGUARO EAST   N/A      N/A N/A N/A N/A               PIMA CO DEQ
FAIRGROUNDS    N/A       93 N/A N/A W2                PIMA CO DEQ
SAGUARO        N/A       98  42  15 W5                *SABINO CYN
SAN CARLOS     N/A       94  41  16 SW4               *SAN CARLOS
GREEN VALLEY   N/A       93  46  20 S3                PIMA CO DEQ
HORSE CAMP CYN N/A       89  37  16 SW3G13            *ARAVAIPA CYN
RINCON MTNS    N/A       75  39  27 SW4G10            *NR MANNING CAMP
$$

AZZ509>511-012015-
LOCATION       SKY/WX    TMP DP  RH WIND       PRES   REMARKS
SAFFORD        SUNNY     94  43  17 W14       29.98F
STRAY HORSE    N/A       72  36  27 W9G16             *
TRAIL CABIN    N/A       83  38  20 NW7G15            *N OF GRANVILLE
BLACK HILLS    N/A       94  34  12 SW5G16            *N OF FT THOMAS
DRY LAKE       N/A       78  37  23 SW5G10            *NATANES MTNS
NOON CREEK     N/A       88  43  21 NE6G10            *PINALENO MTNS
COLUMBINE      N/A       65  42  43 S7G16             *PINALENO MTNS
GUTHRIE        N/A       82  39  22 W3G13             *SW OF GUTHRIE
$$

AZZ502-503-513-012015-
LOCATION       SKY/WX    TMP DP  RH WIND       PRES   REMARKS
NOGALES        SUNNY     89  49  25 VRB5      30.05F
SELLS          N/A       98  51  21 SW8G15            *
SASABE         N/A       93  51  24 S7G11             *ALTAR VLY
HOPKINS        N/A       78  47  33 SW6G11            *SANTA RITA MTNS
CARR CYN       N/A       86  52  31 NE4               *W OF HEREFORD
$$

AZZ507-508-512-012015-
LOCATION       SKY/WX    TMP DP  RH WIND       PRES   REMARKS
SIERRA VISTA   SUNNY     89  47  23 SE8       30.10F
DOUGLAS        SUNNY     91  47  21 MISG      30.07F
EMPIRE MTNS    N/A       90  44  20 SW8G13            *LAS CIENEGAS NCA
MULESHOE RANCH N/A       88  41  19 W8G16             *PRESERVE
HEADQUARTERS   N/A       84  44  25 W5G12             *CHIRICAHUA MTNS
$$

.............................NOTES.............................
THIS IS AN AUTOMATED COLLECTIVE WITH MINIMAL QUALITY CONTROL.
PIMA CO DEQ SITES HAVE NONSTANDARD WIND SENSOR HEIGHTS.
PIMA CO DEQ SITES DO NOT REPORT WIND GUSTS.
* INDICATES WIND SENSORS LOCATED AT 20 FEET INSTEAD OF 33 FEET.
..............................KEY..............................
SKY/WX - SKY CONDITION/WEATHER
TMP    - TEMPERATURE IN FAHRENHEIT
DP     - DEWPOINT IN FAHRENHEIT
RH     - RELATIVE HUMIDITY IN PERCENT
WIND   - DIRECTION AND SPEED IN MILES PER HOUR (MPH)
VRB    - VARIABLE WIND DIRECTION
PRES   - MEAN SEA LEVEL PRESSURE IN INCHES OF MERCURY
         F - FALLING PRESSURE   R - RISING PRESSURE
         S - STEADY PRESSURE
VSB    - VISIBILITY IN MILES
HX     - HEAT INDEX IN FAHRENHEIT
WCI    - WIND CHILL INDEX IN FAHRENHEIT
N/A    - NOT AVAILABLE
AFB    - AIR FORCE BASE
         DAVIS-MONTHAN IS DAVIS-MONTHAN AIR FORCE BASE
CYN    - CANYON
MTNS   - MOUNTAINS
NCA    - NATIONAL CONSERVATION AREA
NR     - NEAR
VLY    - VALLEY
CONTL  - CONTINENTAL
PIMA CO DEQ - PIMA COUNTY DEPT OF ENVIRONMENTAL QUALITY



USA.gov is the U.S. government's official web portal to all federal, state and local government web resources and services.